Home   Weather   Victoria   Past weeks

Flag for USA Past Weather in Victoria, Texas, USA — Yesterday and Last 2 Weeks

Now
80 °F

Sunny.


Feels Like: 80 °F
Forecast: 48 / 82 °F
Wind: 10 mph from East

Location: Victoria Regional Airport

Current Time: Apr 24, 2017 at 4:28:26 pm

Latest Report: Apr 24, 2017 at 3:51 pm


Visibility: 10 mi

Pressure: 29.82 "Hg

Humidity: 42%

Dew Point: 55 °F

Location of VictoriaLocation

Past Weather in Victoria — Graph

°F

Victoria Temperature Yesterday

Maximum temperature yesterday: 76 °F (at 2:51 pm)
Minimum temperature yesterday: 54 °F (at 6:51 am)
Average temperature yesterday: 65 °F

High & Low Weather Summary for the Past Weeks

 TemperatureHumidityPressure
High86 °F (Apr 21, 1:51 pm)97% (Apr 12, 6:22 am)30.19 "Hg (Apr 12, 6:22 am)
Low50 °F (Apr 24, 6:51 am)32% (Apr 24, 2:51 pm)29.78 "Hg (Apr 21, 7:51 pm)
Average72 °F79%30.02 "Hg
* Reported Apr 9 2:51 pm — Apr 24 2:51 pm, Victoria, Weather by CustomWeather, © 2017

Note: Actual official high and low records may vary slightly from our data, if they occured in-between our weather recording intervals... More about our weather records

Advertising

Victoria Weather History for the Previous 24 Hours

Scroll right to see more
 ConditionsComfort  
Time TempWeatherWind HumidityBarometerVisibility
2:51 pm
Mon, Apr 24
80 °FSunny.8 mph32%29.86 "Hg10 mi
1:51 pm80 °FSunny.N/A34%29.89 "Hg10 mi
12:51 pm77 °FSunny.5 mph33%29.91 "Hg10 mi
11:51 am76 °FSunny.3 mph35%29.95 "Hg10 mi
10:51 am72 °FSunny.5 mph43%29.96 "Hg10 mi
9:51 am67 °FSunny.No wind61%29.98 "Hg10 mi
8:51 am63 °FSunny.No wind70%29.98 "Hg10 mi
7:51 am55 °FSunny.3 mph87%29.98 "Hg10 mi
6:51 am50 °FClear.5 mph93%29.96 "Hg10 mi
5:51 am51 °FClear.3 mph89%29.96 "Hg10 mi
4:51 am52 °FClear.3 mph89%29.96 "Hg10 mi
3:51 am53 °FClear.No wind89%29.97 "Hg10 mi
2:51 am54 °FClear.6 mph83%29.99 "Hg10 mi
1:51 am55 °FClear.No wind83%30.01 "Hg10 mi
12:51 am56 °FClear.No wind77%30.02 "Hg10 mi
11:51 pm
Sun, Apr 23
58 °FClear.No wind72%30.01 "Hg10 mi
10:51 pm60 °FClear.8 mph65%30.01 "Hg10 mi
9:51 pm60 °FClear.3 mph72%30.01 "Hg10 mi
8:51 pm63 °FClear.6 mph60%30.00 "Hg10 mi
7:51 pm67 °FSunny.7 mph49%29.99 "Hg10 mi
6:51 pm73 °FSunny.15 mph34%29.98 "Hg10 mi
5:51 pm76 °FSunny.13 mph33%29.99 "Hg10 mi
4:51 pm76 °FSunny.17 mph33%30.00 "Hg10 mi
Weather by CustomWeather, © 2017

See weather overviewHow to use our weather pages